Probability
4 4 4 6 9 12 14 13 10 7 7 7 6 5 4 2 1 0 0 0 0 1 2 2 2 1 0 0 0 0 0 0 0 0 0 0 0 0 0 0 0 0 0
5 5 5 5 7 11 14 13 10 8 9 8 6 4 4 3 2 1 1 0 0 0 1 1 2 1 0 0 0 0 0 0 0 0 0 0 0 0 0 0 0 0 0
5 6 7 6 6 8 12 12 9 8 9 9 6 5 4 5 5 3 2 1 0 0 0 0 1 1 0 0 0 0 0 0 0 0 1 1 1 0 0 0 0 0 0
4 5 6 6 6 6 8 10 9 7 7 7 7 6 6 6 6 5 3 2 0 0 0 0 0 0 0 0 0 0 0 0 0 0 1 2 2 1 0 0 0 0 0
1 2 3 4 5 5 5 7 7 7 6 6 7 7 7 6 6 5 3 2 1 0 0 0 0 0 0 0 0 0 1 2 1 0 0 1 1 1 0 0 0 0 0
0 0 1 1 2 2 2 3 4 5 5 6 6 6 6 5 4 3 2 2 2 1 0 0 0 0 0 0 1 1 2 4 3 2 1 0 0 0 0 0 0 0 0
0 0 0 0 0 0 0 1 1 1 2 3 5 5 4 3 1 1 0 1 2 2 1 0 0 0 0 0 1 2 3 4 4 4 3 2 1 1 2 1 0 0 0
0 0 0 0 0 0 0 0 0 0 0 1 2 3 2 1 0 0 0 0 1 1 1 0 0 0 0 0 0 1 2 3 3 4 4 4 3 2 3 2 1 0 0
0 0 0 0 0 0 0 0 0 0 0 0 1 1 1 0 0 0 0 0 0 0 0 0 0 0 0 0 0 0 1 1 2 3 4 5 5 4 3 2 1 0 0
0 0 0 0 0 0 0 0 0 0 0 0 0 0 0 0 0 0 0 0 0 0 0 0 0 0 0 0 0 0 0 1 2 4 5 5 5 4 4 3 2 1 2
0 0 0 0 0 0 0 0 0 0 0 0 0 0 0 0 0 0 0 0 0 0 0 0 0 0 0 0 0 0 0 0 1 3 5 5 6 6 6 5 4 4 5
0 0 0 0 0 0 0 0 0 0 0 0 0 0 0 0 0 0 0 0 0 0 0 0 0 0 0 0 0 0 0 0 0 1 3 5 6 7 8 7 6 6 6
0 0 0 0 0 0 0 0 0 0 0 0 0 0 0 0 0 0 0 0 0 0 0 0 0 0 0 0 0 0 0 0 0 1 2 4 5 5 6 7 6 5 5
0 0 0 0 0 0 0 0 0 0 0 0 0 0 0 0 0 0 0 0 0 0 0 0 0 0 0 0 0 0 0 0 0 0 1 2 2 2 3 4 3 2 2
0 0 0 0 0 0 0 0 0 0 0 0 0 0 0 0 0 0 0 0 0 0 0 0 0 0 0 0 0 0 0 0 0 0 0 1 1 0 1 1 1 0 0
0 0 0 0 0 0 0 0 0 0 0 0 0 0 0 0 0 0 0 0 0 0 0 0 0 0 0 0 0 0 0 0 0 0 0 0 0 0 0 0 0 0 0
0 0 0 0 0 0 0 0 0 0 0 0 0 0 0 0 0 0 0 0 0 0 0 0 0 0 0 0 0 0 0 0 0 0 0 0 0 0 0 0 0 0 0
0 0 0 0 0 0 0 0 0 0 0 0 0 0 0 0 0 0 0 0 0 0 0 0 0 0 0 0 0 0 0 0 0 0 0 0 0 0 0 0 0 0 0
0 0 0 0 0 0 0 0 0 0 0 0 0 0 0 0 0 0 0 0 0 0 0 0 0 0 0 0 0 0 0 0 0 0 0 0 0 0 0 0 0 0 0
0 0 0 0 0 0 0 0 0 0 0 0 0 0 0 0 0 0 0 0 0 0 0 0 0 0 0 0 0 0 0 0 0 0 0 0 0 0 0 0 0 0 0
0 0 0 0 0 0 0 0 0 0 0 0 0 0 0 0 0 0 0 0 0 0 0 0 0 0 0 0 0 0 0 0 0 0 0 0 0 0 0 0 0 0 0
0 0 0 0 0 0 0 0 0 0 0 0 0 0 0 0 0 0 0 0 0 0 0 0 0 0 0 0 0 0 0 0 0 0 0 0 0 0 0 0 0 0 0
0 0 0 0 0 0 0 0 0 0 0 0 0 0 0 0 0 0 0 0 0 0 0 0 0 0 0 0 0 0 0 0 0 0 0 0 0 0 0 0 0 0 0
0 0 0 0 0 0 0 0 0 0 0 0 0 0 0 0 0 0 0 0 0 0 0 0 0 0 0 0 0 0 0 0 0 0 0 0 0 0 0 0 0 0 0
0 0 0 0 0 0 0 0 0 0 0 0 0 0 0 0 0 0 0 0 0 0 0 0 0 0 0 0 0 0 0 0 0 0 0 0 0 0 0 0 0 0 0
0 0 0 0 0 0 0 0 0 0 0 0 0 0 0 0 0 0 0 0 0 0 0 0 0 0 0 0 0 0 0 0 0 0 0 0 0 0 0 0 0 0 0
Wind_Speed
2 2 2 2 2 2 2 3 4 5 6 6 6 7 7 6 5 4 4 10 12 11 12 12 12 12 11 11 10 10 9 8 7 7 6 5 5 5 5 5 5 4 4
2 2 2 2 2 2 2 3 4 4 4 4 6 6 6 6 5 4 4 6 11 12 12 13 13 13 12 12 11 11 10 9 9 8 7 6 5 5 5 5 5 5 5
3 3 3 3 3 3 3 2 4 3 3 4 5 5 5 5 5 5 5 4 6 10 11 13 13 13 13 12 12 12 11 11 10 9 9 8 7 7 6 6 6 6 5
3 3 3 3 3 3 2 2 2 3 3 3 3 4 4 4 5 5 5 5 5 5 8 12 12 12 12 13 13 13 12 11 11 10 10 10 9 9 9 8 8 8 7
4 3 3 3 3 2 3 3 2 2 3 3 4 3 3 3 4 4 5 5 5 5 5 8 11 11 10 12 13 13 13 12 11 11 11 11 11 11 11 10 10 10 9
4 3 3 3 2 2 2 3 3 3 2 3 4 3 3 3 3 4 4 4 4 5 6 6 6 7 10 10 12 13 13 13 12 12 12 12 13 12 12 12 11 11 11
5 4 3 3 2 2 3 3 2 3 3 2 2 2 3 3 4 3 4 4 4 5 5 5 5 5 5 10 11 11 12 12 12 12 13 13 13 14 14 13 13 12 12
5 4 3 3 3 2 2 3 2 2 2 1 1 1 2 3 3 4 4 4 5 4 5 5 5 5 4 4 7 10 11 12 13 12 12 12 12 13 14 15 14 13 13
5 4 4 3 3 2 2 3 3 3 3 3 2 2 2 3 2 3 4 4 4 4 4 4 5 5 5 4 5 9 10 10 13 14 13 13 12 13 13 14 14 14 13
5 4 3 3 3 3 2 3 3 3 3 3 3 3 3 1 2 2 2 3 4 5 5 4 5 5 5 4 5 7 9 10 12 14 14 14 14 14 14 13 14 14 13
4 3 3 3 3 3 3 3 3 3 3 3 3 2 3 2 3 2 3 2 2 3 4 4 4 4 5 5 4 5 7 10 13 14 15 15 15 15 14 14 13 14 14
3 3 3 3 3 3 3 3 3 4 3 4 3 3 3 2 2 2 3 3 3 3 4 4 4 4 4 4 5 6 7 9 11 13 14 15 14 14 14 14 14 13 13
3 3 3 3 3 3 3 3 3 3 3 3 3 3 3 3 2 2 3 3 3 2 3 3 3 3 3 3 3 6 7 8 9 11 13 14 13 12 12 13 14 13 12
3 3 3 3 3 3 4 3 3 3 3 3 4 3 3 2 2 2 2 2 3 3 3 3 1 2 2 2 3 5 4 7 8 10 11 12 11 11 11 11 12 12 12
4 3 3 4 4 3 4 4 3 3 3 3 3 3 3 2 2 2 2 2 3 4 4 2 2 1 1 2 3 2 2 5 7 8 9 10 10 10 10 10 10 10 10
4 4 4 4 4 4 4 3 3 3 3 3 2 3 3 2 2 2 2 2 3 4 5 2 2 1 1 2 2 2 2 4 6 7 8 8 8 8 9 10 10 10 10
4 4 4 4 4 4 4 3 3 3 3 3 3 3 3 3 3 2 2 3 3 3 5 3 2 1 2 2 2 2 2 3 3 6 7 8 8 9 10 10 11 11 11
4 4 4 3 3 3 4 4 3 3 3 3 3 3 4 3 3 3 3 3 3 3 4 4 2 2 2 2 2 2 2 2 2 5 7 8 8 8 9 10 11 11 12
4 3 3 3 3 3 3 3 3 3 2 2 3 3 3 3 3 3 3 3 3 3 3 3 3 2 1 2 2 3 3 2 3 4 6 7 8 8 9 10 10 10 11
3 3 3 3 3 3 3 3 3 2 2 2 2 3 3 3 3 3 3 3 3 3 3 3 3 2 2 2 1 2 3 3 4 4 4 5 7 9 10 11 10 10 11
3 3 3 3 3 2 2 3 2 2 2 2 2 2 2 3 3 3 3 2 2 2 3 3 3 2 2 2 2 2 3 4 4 2 2 4 4 4 5 8 9 9 10
3 3 2 3 3 2 4 4 3 2 2 2 2 2 3 2 3 5 5 4 3 3 3 3 3 3 3 3 2 3 3 4 4 2 3 5 4 5 4 4 8 11 11
2 2 2 2 2 3 4 4 3 2 2 2 2 2 3 2 3 2 4 4 4 5 5 4 4 4 4 4 4 4 4 4 5 4 4 5 4 5 5 6 11 12 11
2 2 2 2 2 3 4 4 3 2 2 2 2 2 2 2 3 2 2 3 3 3 3 3 3 3 4 3 4 4 5 5 5 3 3 5 4 5 6 5 9 11 11
2 2 2 2 2 3 3 3 3 1 1 2 2 1 1 2 4 4 2 3 3 3 3 3 4 4 5 6 5 2 3 3 4 4 2 3 3 5 5 5 6 9 10
2 2 2 2 2 2 2 3 2 1 1 2 2 2 2 3 4 4 2 2 3 3 2 2 2 3 3 3 4 3 3 3 4 4 1 2 3 4 5 4 4 5 6
Wind_Direction
297 295 277 259 247 236 224 222 217 218 220 221 217 213 213 219 218 206 179 184 187 196 206 211 215 217 217 218 219 219 218 217 220 219 220 223 233 245 254 261 266 272 281
311 297 287 280 268 254 239 235 231 229 224 222 223 218 213 214 215 206 183 189 194 198 208 214 218 220 220 221 220 218 217 219 219 219 221 224 231 243 255 264 271 274 277
312 302 294 287 284 283 267 253 250 246 235 230 230 226 217 211 208 208 194 188 196 205 209 216 220 222 222 223 224 222 220 221 221 222 225 228 231 237 247 256 263 269 275
310 301 290 287 296 296 280 262 250 253 248 238 236 229 222 213 212 208 200 191 190 195 209 214 215 220 224 226 228 226 224 222 222 224 226 230 234 239 245 252 258 261 265
312 301 285 279 286 285 281 279 268 247 246 246 243 234 227 216 213 214 207 198 192 190 193 205 210 213 219 226 231 231 228 225 223 227 229 232 236 240 245 249 253 256 258
314 308 293 284 280 276 280 280 275 268 248 243 255 249 241 232 217 213 214 207 202 197 193 192 201 212 217 224 232 235 234 231 228 229 232 235 237 241 245 248 251 254 256
315 308 301 297 288 269 266 274 269 271 263 253 253 259 259 247 233 218 212 210 210 206 198 196 195 199 208 219 228 236 239 238 237 235 234 237 241 243 245 248 250 253 254
317 306 300 295 290 277 271 273 272 268 270 261 223 236 247 251 244 231 215 214 214 210 209 206 203 203 202 202 217 226 236 240 241 242 242 242 244 248 249 249 250 251 253
312 306 303 298 288 274 260 267 263 246 256 264 239 212 213 231 259 236 223 219 214 215 215 208 210 210 209 202 202 215 225 234 241 245 247 248 248 250 253 255 251 251 252
316 315 311 308 298 282 270 270 269 257 247 250 257 247 248 231 228 265 257 236 224 223 221 218 215 215 215 213 208 205 214 227 239 246 251 253 252 253 255 258 258 254 254
313 316 316 307 301 293 288 278 275 266 255 245 239 246 256 265 241 236 257 252 250 238 230 224 219 216 215 214 208 212 216 227 239 247 253 256 257 256 259 258 262 260 256
308 309 310 311 307 299 294 289 281 273 265 259 251 243 236 234 230 240 248 244 250 250 243 229 222 216 214 211 217 223 226 229 238 247 253 257 260 261 260 262 263 267 263
308 310 318 313 305 301 295 288 287 282 272 262 255 254 251 247 251 250 253 253 256 260 246 239 228 218 211 206 218 228 232 231 236 245 253 259 264 265 264 263 265 265 269
301 306 311 300 292 296 300 294 280 274 269 259 258 258 254 255 255 250 245 249 266 261 247 246 239 214 214 213 226 231 233 237 243 251 258 263 267 269 265 264 264 266 267
302 308 308 304 299 293 290 289 272 273 276 269 261 260 256 255 252 252 248 235 241 256 254 235 235 237 242 233 234 231 235 249 254 257 261 263 264 266 267 266 265 265 265
309 310 307 307 305 301 294 286 278 269 266 271 263 260 263 258 257 249 245 251 242 248 257 243 255 291 290 295 276 255 246 263 260 261 264 265 264 266 268 269 268 269 266
307 305 300 297 297 301 300 291 284 282 269 270 272 260 257 258 257 258 253 251 251 251 260 268 267 281 288 285 290 266 256 248 256 266 272 273 269 265 266 269 267 267 266
304 297 295 291 290 293 294 292 292 288 282 277 277 273 263 261 260 257 253 252 253 252 253 261 260 261 278 275 276 284 294 293 277 274 276 277 272 272 275 273 270 269 267
304 307 304 300 298 294 289 289 286 281 283 287 288 284 282 269 272 271 265 260 258 263 261 256 265 262 280 299 304 314 309 299 299 288 284 282 281 285 284 281 277 273 268
306 309 305 302 299 297 296 294 285 280 285 290 294 295 296 287 274 269 264 256 253 253 256 255 260 269 277 284 290 298 305 301 298 300 294 299 299 296 290 286 282 278 272
305 306 307 308 305 292 293 284 279 278 279 291 299 296 300 309 308 296 276 264 256 250 253 253 261 274 274 282 279 289 294 303 298 294 311 300 297 291 289 289 291 290 288
297 300 306 312 315 317 312 298 283 279 275 273 277 288 294 302 312 311 311 307 288 261 253 253 258 258 270 275 281 288 294 304 295 301 312 298 295 289 288 285 297 301 298
289 297 302 305 307 313 318 313 288 278 272 265 266 278 287 297 302 294 303 307 308 298 273 257 256 263 271 276 275 275 274 279 281 293 303 286 285 285 290 295 299 299 298
276 284 292 297 305 306 315 319 304 278 279 277 274 271 274 290 295 290 298 296 285 287 279 262 247 256 267 267 255 266 275 285 288 282 282 278 285 286 297 294 295 299 301
276 277 283 293 299 303 311 322 321 302 283 283 280 287 284 281 296 299 293 287 289 297 318 297 282 283 289 297 295 285 285 290 292 287 284 276 290 303 291 280 290 301 306
262 269 281 282 281 292 305 318 318 327 304 292 286 285 289 291 302 301 277 271 276 283 299 306 308 310 307 313 312 279 264 272 287 283 276 299 298 321 303 279 285 299 300